Regional Weather Roundup
Issued by NWS

Home | Current Version | Previous Version | Graphics & Text | Print | Product List | Glossary On
Versions: 1 2 3 4 5 6 7 8 9 10 11 12 13 14 15 16 17 18 19 20 21 22 23 24 25 26 27 28 29 30 31 32 33 34 35 36 37 38 39 40 41 42 43 44 45 46 47 48 49 50
421
ASUS44 KLIX 312005
RWRLA
LOUISIANA WEATHER ROUNDUP
NATIONAL WEATHER SERVICE NEW ORLEANS LA
300 PM CDT FRI OCT 31 2014

NOTE: "FAIR" INDICATES FEW OR NO CLOUDS BELOW 12,000 FEET WITH NO
      SIGNIFICANT WEATHER AND/OR OBSTRUCTIONS TO VISIBILITY.
      SKY/WX - SKY CONDITION AND SIGNIFICANT WEATHER.
      TMP - AIR TEMPERATURE.    DP   - DEWPOINT TEMPERATURE.
      RH  - RELATIVE HUMIDITY.  PRES - PRESSURE.
      HX  - HEAT INDEX.         WCI  - WIND CHILL INDEX.

*  THESE STATIONS ARE NOT NWS OR FAA STATIONS AND ARE NOT UNDER
   NWS QUALITY CONTROL.

LAZ040-048-061>063-065-066-069-312100-
SOUTHEAST LOUISIANA

CITY           SKY/WX    TMP DP  RH WIND       PRES   REMARKS
N.O. AUDUBON     N/A     76  48  37 MISG        N/A
N.O. INTL ARPT MOSUNNY   75  42  30 NW17G23   30.00F
N.O. LAKEFRONT SUNNY     74  47  38 NW18      30.00F
N.O. DOWNTOWN* FAIR      75  43  31 W7G18     30.01S
SLIDELL        SUNNY     75  43  31 NW12G20   29.98S
BATON ROUGE    SUNNY     73  44  35 NW15G23   30.05S
BOOTHVILLE     SUNNY     74  48  39 NW16G26   29.98F
BELLE CHASSE   MOSUNNY   75  40  28 N10G22    29.99F
BOGALUSA*        N/A     75  41  30 N17G23    30.01S
NEW ROADS*     FAIR      72  47  41 N15G22    30.07S
GONZALES*      FAIR      73  45  35 W13G22    30.03S
HAMMOND*       SUNNY     75  41  29 NW20G25   30.03S
HOUMA*         SUNNY     75  39  27 NW16      30.01F
PORT FOURCHON* CLEAR     75  46  35 NW16G22   30.03F

$$

LAZ041-044-053-054-312100-
SOUTHWEST LOUISIANA

CITY           SKY/WX    TMP DP  RH WIND       PRES   REMARKS
LAKE CHARLES   SUNNY     76  45  33 N12G22    30.09F
LAFAYETTE      SUNNY     75  40  28 NW17      30.07F
PATTERSON      SUNNY     75  46  35 N10       30.06F
SALT POINT       N/A     76  45  33 N10G20    30.03F
NEW IBERIA     SUNNY     76  44  32 N15       30.06F
CHENAULT AIRPK NOT AVBL

$$

LAZ027-028-312100-
CENTRAL LOUISIANA

CITY           SKY/WX    TMP DP  RH WIND       PRES   REMARKS
FORT POLK      SUNNY     71  44  37 NW15G22   30.12S
ALEXANDRIA INT SUNNY     71  46  40 N13G21    30.10S
ALEXANDRIA     SUNNY     71  48  43 NW12G20   30.11S

$$

LAZ001-002-312100-
NORTHWEST LOUISIANA

CITY           SKY/WX    TMP DP  RH WIND       PRES   REMARKS
SHREVEPORT     MOSUNNY   69  44  40 N14       30.18S
BARKSDALE AFB  MOSUNNY   69  44  41 N13       30.18F
DTN SHREVEPORT MOSUNNY   68  44  42 NW10G20   30.19S

$$

LAZ014-016-312100-
NORTHEAST LOUISIANA

CITY           SKY/WX    TMP DP  RH WIND       PRES   REMARKS
MONROE         MOSUNNY   68  46  45 N14G25    30.14F
TALLULAH       PTSUNNY   66  47  50 N13G22    30.10S

$$




USA.gov is the U.S. government's official web portal to all federal, state and local government web resources and services.